TimeBST,TemperatureF,Dew PointF,Humidity,Sea Level PressureIn,VisibilityMPH,Wind Direction,Wind SpeedMPH,Gust SpeedMPH,PrecipitationIn,Events,Conditions,WindDirDegrees,DateUTC
12:50 AM,56,51,78,29.49,25,South,9.2,,,,Mostly Cloudy,170,2012-10-17 23:50:00
12:50 AM,55.4,51.8,88,29.47,6.2,South,9.2,-,N/A,,Scattered Clouds,170,2012-10-17 23:50:00
1:50 AM,55.4,51.8,88,29.47,6.2,South,9.2,-,N/A,,Mostly Cloudy,180,2012-10-18 00:50:00
2:50 AM,55.4,51.8,88,29.47,6.2,South,8.1,-,N/A,,Mostly Cloudy,180,2012-10-18 01:50:00
3:50 AM,55,51,83,29.49,28,South,9.2,,,,Overcast,190,2012-10-18 02:50:00
3:50 AM,55.4,51.8,88,29.47,6.2,South,9.2,-,N/A,,Overcast,190,2012-10-18 02:50:00
4:50 AM,55.4,51.8,88,29.47,6.2,SSW,10.4,-,N/A,,Mostly Cloudy,200,2012-10-18 03:50:00
5:50 AM,55.4,51.8,88,29.47,6.2,South,6.9,-,N/A,,Overcast,190,2012-10-18 04:50:00
6:50 AM,55,51,81,29.50,28,South,9.2,,,,Partly Cloudy,190,2012-10-18 05:50:00
6:50 AM,55.4,51.8,88,29.50,6.2,South,9.2,-,N/A,,Mostly Cloudy,190,2012-10-18 05:50:00
7:50 AM,53.6,50.0,88,29.50,6.2,South,8.1,-,N/A,,Scattered Clouds,180,2012-10-18 06:50:00
8:50 AM,55.4,50.0,82,29.53,6.2,South,6.9,-,N/A,,Scattered Clouds,190,2012-10-18 07:50:00
9:50 AM,56,51,80,29.59,22,South,10.4,,,,Scattered Clouds,190,2012-10-18 08:50:00
9:50 AM,57.2,51.8,82,29.56,6.2,South,10.4,-,N/A,,Mostly Cloudy,190,2012-10-18 08:50:00
10:50 AM,59.0,51.8,77,29.56,6.2,South,10.4,-,N/A,,Mostly Cloudy,190,2012-10-18 09:50:00
11:50 AM,59.0,50.0,72,29.59,6.2,SSW,13.8,-,N/A,,Mostly Cloudy,200,2012-10-18 10:50:00
12:50 PM,60,51,63,29.60,28,SSW,17.3,,,,Partly Cloudy,210,2012-10-18 11:50:00
12:50 PM,60.8,50.0,68,29.59,6.2,SSW,17.3,-,N/A,,Mostly Cloudy,210,2012-10-18 11:50:00
1:50 PM,60.8,48.2,63,29.59,6.2,SSW,13.8,-,N/A,,Mostly Cloudy,200,2012-10-18 12:50:00
2:50 PM,60.8,46.4,59,29.59,6.2,SSW,16.1,-,N/A,,Mostly Cloudy,200,2012-10-18 13:50:00
3:50 PM,60.8,48.2,63,29.59,6.2,South,12.7,-,N/A,,Mostly Cloudy,190,2012-10-18 14:50:00
4:50 PM,59.0,48.2,67,29.62,6.2,South,12.7,-,N/A,,Mostly Cloudy,190,2012-10-18 15:50:00
5:50 PM,57.2,50.0,77,29.62,6.2,South,10.4,-,N/A,,Mostly Cloudy,180,2012-10-18 16:50:00
6:50 PM,57,51,72,29.65,25,South,9.2,,,,Scattered Clouds,170,2012-10-18 17:50:00
6:50 PM,57.2,50.0,77,29.65,6.2,South,9.2,-,N/A,,Mostly Cloudy,170,2012-10-18 17:50:00
7:50 PM,57.2,51.8,82,29.65,6.2,South,8.1,-,N/A,,Mostly Cloudy,170,2012-10-18 18:50:00
8:50 PM,57.2,51.8,82,29.65,6.2,South,6.9,-,N/A,Rain,Light Rain,180,2012-10-18 19:50:00
9:50 PM,57,52,78,29.69,22,South,11.5,,,Rain,Light Rain,190,2012-10-18 20:50:00
9:50 PM,57.2,51.8,82,29.68,6.2,South,11.5,-,N/A,,Mostly Cloudy,190,2012-10-18 20:50:00
10:50 PM,57.2,51.8,82,29.71,6.2,SW,6.9,-,N/A,,Mostly Cloudy,220,2012-10-18 21:50:00
11:50 PM,55.4,51.8,88,29.71,6.2,SSW,3.5,-,N/A,,Mostly Cloudy,210,2012-10-18 22:50:00